User: anonymous   Login
Location: Unspecified
(0.0000°N, 0.0000°E)
Time: 21:44:20
(UTC+00:00)
Language:

Oscar 18 - Orbit

View from above orbital plane
View from above orbital plane
View from above satellite
View from above satellite

Ground track
Ground track

The orbit data is extracted from the following two-line orbital elements,

1 20441U 90005F   18344.43355606  .00000020  00000-0  23626-4 0  9992
2 20441  98.6476 284.0380 0011606   6.1134 110.6837 14.32787868508998
Epoch (UTC): 10 December 2018 10:24:19
Eccentricity: 0.0011606
inclination: 98.6476°
perigee height: 774 km
apogee height: 791 km
right ascension of ascending node: 284.0380°
argument of perigee: 6.1134°
revolutions per day: 14.32787868
mean anomaly at epoch: 110.6837°
orbit number at epoch: 50899

The dashed part of the orbit path shows where the satellite is in the earth's shadow,  

DLR